DECAYED

CZ-6A DEB, 54322 (Decayed)

Orbit data source: Space-Track

CZ-6A DEB, 54322 was space debris in SSO originally from a launch on Fri, 11 Nov 2022 UTC launched from the Taiyaun Space Center, China (TSC). Debris objects in space refer to the collection of defunct objects orbiting the Earth. Examples of debris include non-operational satellites, rocket bodies, and fragments generated from explosions, collisions, or faulty payload assembly.

Not visible in the next 10 days
Identifier
54322, 2022-151BR
Orbit
Decayed
Country
Flag of CNCN / PRC
Related business
Manufacturer
SAST
Mission
Decayed spacecraft
Bus & Motor
Unknown
Mass
Unknown
Launch date (UTC)
2022-11-11 (3 years ago)
Launch vehicle
Unknown
Launch site
Taiyaun Space Center, China (TSC)
Object type
Payload
Rocket body
Debris
Shape & HBR
Unknown shape, 0.1 m
Radar Cross Section
Small (<0.1 m²)

Expand to show TLE details & history
Last TLE update: 8 months ago

TLE from 8 months ago
0 CZ-6A DEB
1 54322U 22151BR  25105.46434750  .04860974  26672-1  19480-1 0  9998
2 54322  98.6073 183.9000 0012974 326.3852  33.6592 15.89851105129434
Epoch: 2025-04-15T11:08Z
TLE epoch observation values (Epoch: 2025-04-15T11:08:39.624Z)
Latitude
-0.00012°
Longitude
172.87035°
Altitude
298.633 km
Speed
7.733 km/s
True Right ascension
12h 15m 36s
True Declination
0° 00' 00"
Sunlit
Object was in full shadow at epoch
Visualization orbit readout
Latitude
Unknown
Longitude
Unknown
Altitude
Unknown
Speed
Unknown
Apparent Right ascension
Unknown
Apparent Declination
Unknown
Sunlit
N/A
Visualization observer readout
Local Sidereal Time
08:20:22
Azimuth
Unknown
Elevation
Unknown
Doppler factor
Unknown
Orbital elements
Apogee altitude
308.294 km
Perigee altitude
290.967 km
Semi-major axis
6,677.767 km
Eccentricity
0.0013
Inclination
98.6073°
RAAN
183.9°
Arg. of periapsis
326.3852°
True anomaly
33.74171°
Mean anomaly
33.6592°
Eccentric anomaly
33.70045°
Mean motion
3.97737 °/min
Orbital period
90.51 mins
BSTAR
0.01948
Loading maneuver chart data...
Computing Atmospheric mass density...
Loading historical data...
Loading historical data...
Loading historical data...
Loading historical data...
Loading historical data...
Loading historical data...
Loading historical data...

Documentation

Showing up to 5 results
|